Showing default

EXPLORER 20, 870

Orbit data source: Space-Track

EXPLORER 20, 870 is a payload satellite owned by GSFC (US) in LEO that was launched on Tue, 25 Aug 1964 UTC via an SCOUT X-4 launch vehicle from the Air Force Western Test Range (AFWTR). Payload-class satellites include a variety of spacecraft equipped with specific instruments for various scientific and technological missions. These include communications satellites like Starlink; space stations such as the ISS; scientific satellites like the Hubble; Earth observation satellites from companies like Planet Labs, Umbra, and HawkEye 360; GPS; miniature CubeSats for education and research; and military/defense satellites.

Loading next visibility...
Identifier
870, 1964-051A
Orbit
LEO
Country
Flag of USUS
Related business
Manufacturer
Cutler-Hammer/AIL
Mission
Spacecraft
Bus & Motor
S-48, Unknown motor
Mass
44 kg wet, 44 kg dry
Launch date (UTC)
1964-08-25 (62 years ago)
Launch vehicle
SCOUT X-4
Launch site
Air Force Western Test Range (AFWTR)
Object type
Payload
Rocket body
Debris
Shape & HBR
DCONE + 6 ANT, 18.5 m
Radar Cross Section
Medium (>0.1 m² and <1 m²)

Expand to show TLE details & history
Last TLE update: 22 hours ago

TLE from 22 hours ago
0 EXPLORER 20
1 00870U 64051A   26207.56408879  .00000123  00000-0  87317-4 0  9991
2 00870  79.8954 235.8862 0097090 179.5693 180.5566 13.91798067138912
Epoch: 2026-07-26T13:32Z
TLE epoch observation values (Epoch: 2026-07-26T13:32:17.271Z)
Latitude
0.00005°
Longitude
88.55404°
Altitude
996.055 km
Speed
7.318 km/s
True Right ascension
15h 43m 32s
True Declination
0° 00' 00"
Sunlit
Object was in daylight at epoch
Visualization orbit readout
Latitude
Unknown
Longitude
Unknown
Altitude
Unknown
Speed
Unknown
Apparent Right ascension
Unknown
Apparent Declination
Unknown
Sunlit
N/A
Visualization observer readout
Local Sidereal Time
01:17:34
Azimuth
Unknown
Elevation
Unknown
Doppler factor
Unknown
Orbital elements
Apogee altitude
990.457 km
Perigee altitude
848.75 km
Semi-major axis
7,297.74 km
Eccentricity
0.00971
Inclination
79.8954°
RAAN
235.8862°
Arg. of periapsis
179.5693°
True anomaly
180.54592°
Mean anomaly
180.5566°
Eccentric anomaly
180.55125°
Mean motion
3.48145 °/min
Orbital period
103.41 mins
BSTAR
0.000087317
Loading maneuver chart data...
Computing Atmospheric mass density...
Loading historical data...
Loading historical data...
Loading historical data...
Loading historical data...
Loading historical data...
Loading historical data...
Loading historical data...

Documentation

Showing up to 5 results
|